This is the latest recevied weather packets stored in our database for station/object WB3IGR. If no packets are shown the sender has not sent any weather packets the latest 10 day(s).
| Time | Temp. | Humidity | Pressure | Rain* | Wind** | Luminosity | Snow |
|---|---|---|---|---|---|---|---|
| 1778134894 | 10.56° C | 90% | 1012.6 hPa | 0 mm | - | 0 W/m² | - |
| 1778134591 | 10.56° C | 91% | 1013 hPa | 0 mm | - | 0 W/m² | - |
| 1778134289 | 10.56° C | 92% | 1012.8 hPa | 0 mm | - | 0 W/m² | - |
| 1778133987 | 10° C | 94% | 1012.8 hPa | 0 mm | - | 0 W/m² | - |
| 1778133683 | 10° C | 97% | 1012.7 hPa | 0 mm | - | 0 W/m² | - |
| 1778133378 | 10.56° C | 97% | 1012.7 hPa | 0 mm | - | 0 W/m² | - |
| 1778133075 | 10.56° C | 97% | 1012.8 hPa | 0 mm | - | 0 W/m² | - |
| 1778132771 | 10.56° C | 96% | 1012.7 hPa | 0 mm | - | 0 W/m² | - |
| 1778132468 | 11.11° C | 94% | 1012.7 hPa | 0 mm | - | 0 W/m² | - |
| 1778132166 | 10.56° C | 91% | 1012.8 hPa | 0 mm | - | 0 W/m² | - |
| 1778131864 | 10.56° C | 92% | 1012.9 hPa | 0 mm | - | 0 W/m² | - |
| 1778131562 | 10.56° C | 92% | 1012.7 hPa | 1.27 mm | - | 0 W/m² | - |
| 1778131258 | 11.11° C | 92% | 1012.6 hPa | 0 mm | - | 0 W/m² | - |
| 1778130956 | 11.11° C | 91% | 1012.9 hPa | 0 mm | - | 0 W/m² | - |
| 1778130652 | 11.11° C | 91% | 1012.6 hPa | 0 mm | - | 0 W/m² | - |
| 1778130349 | 11.11° C | 91% | 1012.8 hPa | 1.78 mm | - | 0 W/m² | - |
| 1778130045 | 11.11° C | 91% | 1012.9 hPa | 1.78 mm | - | 0 W/m² | - |
| 1778129742 | 11.11° C | 90% | 1012.8 hPa | 1.27 mm | - | 0 W/m² | - |
| 1778129440 | 11.67° C | 90% | 1012.6 hPa | 1.27 mm | - | 0 W/m² | - |
| 1778129136 | 11.67° C | 89% | 1012.7 hPa | 0 mm | - | 0 W/m² | - |
| 1778128833 | 11.67° C | 89% | 1012.4 hPa | 0 mm | - | 0 W/m² | - |
| 1778128529 | 11.67° C | 89% | 1012.4 hPa | 0 mm | - | 0 W/m² | - |
| 1778128226 | 11.67° C | 89% | 1012.5 hPa | 0 mm | - | 0 W/m² | - |
| 1778127922 | 11.67° C | 89% | 1012.4 hPa | 0 mm | - | 0 W/m² | - |
| 1778127618 | 11.67° C | 88% | 1012.5 hPa | 0 mm | - | 0 W/m² | - |
* Rain latest hour (hover to see other rain measurements)
** Current wind speed in m/s (hover to see current wind gust speed)